, AK

(GMT )
Shemya

Weather History for PASY - November, 2012

Change the Weather History Date:

Sunday, November 4, 2012

  Actual Average Record
Temperature  
Mean Temperature 40 °F -  
Max Temperature 44 °F 41 °F 46 °F (1966)
Min Temperature 35 °F 35 °F 29 °F (1960)
Degree Days  
Heating Degree Days 26    
Moisture  
Dew Point 32 °F    
Average Humidity 76    
Maximum Humidity 89    
Minimum Humidity 54    
Precipitation  
Precipitation 0.00 in - - ()
Sea Level Pressure  
Sea Level Pressure 30.26 in    
Wind  
Wind Speed 9 mph (ESE)    
Max Wind Speed 17 mph    
Max Gust Speed -    
Visibility 10 miles    
Events Rain    
Averages and records for this station are not official NWS values.
T = Trace of Precipitation, MM = Missing Value Source: NWS Daily Summary

Daily Weather History Graph

Daily Weather History Graph

Search for Another Location

Airport or City:

Trip Planner

Search our weather history database for the weather conditions in past years. The results will help you decide how hot, cold, wet, or windy it might be!

Date:

Astronomy

Nov. 03, 2012 Rise Set
Actual Time 10:25 AM HDT 7:47 PM HDT
Civil Twilight 9:49 AM HDT 8:24 PM HDT
Nautical Twilight 9:08 AM HDT 9:05 PM HDT
Astronomical Twilight 8:28 AM HDT 9:45 PM HDT
Moon 11:34 PM HST (11/4) 2:28 PM HST (11/4)
Length of Visible Light 10h 35m
Length of Day
9h 22m
Waning Gibbous, 70% of the Moon is Illuminated
Nov 4
Waning Gibbous
Nov 6
Last Quarter
Nov 13
New
Nov 20
First Quarter
Nov 28
Full

Hourly Weather History & Observations

Time (HST) Temp. Windchill Dew Point Humidity Pressure Visibility Wind Dir Wind Speed Gust Speed Precip Events Conditions
12:22 AM 37.4 °F 32.1 °F 32.0 °F 81% 30.28 in 10.0 mi SE 6.9 mph - N/A   Scattered Clouds
12:56 AM 37.9 °F 34.4 °F 33.1 °F 83% 30.28 in 10.0 mi NE 4.6 mph - N/A Rain Light Rain
1:13 AM 37.4 °F 34.9 °F 33.8 °F 87% 30.28 in 10.0 mi NE 3.5 mph - N/A   Overcast
1:51 AM 37.4 °F 31.4 °F 33.8 °F 87% 30.28 in 10.0 mi East 8.1 mph - N/A   Overcast
1:56 AM 37.0 °F 31.0 °F 33.1 °F 86% 30.28 in 10.0 mi East 8.1 mph - N/A   Overcast
1:41 AM 37.4 °F 32.8 °F 32.0 °F 81% 30.28 in 10.0 mi ESE 5.8 mph - N/A   Overcast
1:56 AM 37.0 °F 31.6 °F 32.0 °F 82% 30.28 in 10.0 mi East 6.9 mph - N/A   Mostly Cloudy
2:13 AM 37.4 °F 32.8 °F 32.0 °F 81% 30.27 in 10.0 mi ESE 5.8 mph - N/A   Scattered Clouds
2:56 AM 37.0 °F 34.5 °F 34.0 °F 89% 30.28 in 10.0 mi ESE 3.5 mph - N/A   Overcast
3:56 AM 37.0 °F 30.4 °F 32.0 °F 82% 30.27 in 10.0 mi ESE 9.2 mph - N/A   Partly Cloudy
4:16 AM 37.4 °F 30.3 °F 33.8 °F 87% 30.26 in 10.0 mi East 10.4 mph - N/A   Mostly Cloudy
4:56 AM 37.0 °F 29.8 °F 34.0 °F 89% 30.26 in 10.0 mi East 10.4 mph - N/A   Mostly Cloudy
5:56 AM 37.9 °F 29.2 °F 34.0 °F 86% 30.25 in 10.0 mi SE 15.0 mph - N/A   Overcast
6:25 AM 37.4 °F 31.4 °F 33.8 °F 87% 30.25 in 10.0 mi ESE 8.1 mph - N/A   Overcast
6:38 AM 39.2 °F 33.0 °F 33.8 °F 81% 30.25 in 10.0 mi ESE 9.2 mph - N/A   Overcast
6:56 AM 37.9 °F 30.9 °F 33.1 °F 83% 30.26 in 10.0 mi SE 10.4 mph - N/A   Mostly Cloudy
7:14 AM 39.2 °F 32.0 °F 32.0 °F 75% 30.25 in 10.0 mi SE 11.5 mph - N/A   Mostly Cloudy
7:56 AM 39.0 °F 32.3 °F 33.1 °F 79% 30.25 in 10.0 mi SE 10.4 mph - N/A   Overcast
8:56 AM 39.0 °F 34.0 °F 33.1 °F 79% 30.26 in 10.0 mi SE 6.9 mph - N/A   Overcast
9:56 AM 39.0 °F 33.4 °F 33.1 °F 79% 30.27 in 10.0 mi SSE 8.1 mph - N/A   Overcast
10:56 AM 39.9 °F 32.1 °F 30.9 °F 70% 30.26 in 10.0 mi ESE 13.8 mph - N/A   Scattered Clouds
11:56 AM 41.0 °F 34.7 °F 30.9 °F 67% 30.26 in 10.0 mi ESE 10.4 mph - N/A   Overcast
12:56 PM 41.0 °F 33.5 °F 30.9 °F 67% 30.27 in 10.0 mi ESE 13.8 mph - N/A   Mostly Cloudy
1:56 PM 42.1 °F 35.2 °F 30.9 °F 65% 30.26 in 10.0 mi SE 12.7 mph - N/A   Overcast
2:56 PM 42.1 °F 34.5 °F 32.0 °F 67% 30.25 in 10.0 mi SE 15.0 mph - N/A   Overcast
3:56 PM 41.0 °F 32.5 °F 33.1 °F 73% 30.24 in 10.0 mi ESE 17.3 mph - N/A   Mostly Cloudy
4:56 PM 39.9 °F 31.8 °F 33.1 °F 77% 30.24 in 10.0 mi ESE 15.0 mph - N/A   Overcast
5:56 PM 39.9 °F 32.1 °F 30.9 °F 70% 30.24 in 10.0 mi ESE 13.8 mph - N/A   Overcast
6:56 PM 39.9 °F 33.4 °F 28.0 °F 63% 30.25 in 10.0 mi SE 10.4 mph - N/A   Overcast
7:56 PM 39.0 °F 32.8 °F 28.0 °F 65% 30.25 in 10.0 mi SE 9.2 mph - N/A   Overcast
8:56 PM 39.0 °F 31.8 °F 28.9 °F 67% 30.26 in 10.0 mi ESE 11.5 mph - N/A   Overcast
9:56 PM 39.0 °F 31.4 °F 28.9 °F 67% 30.26 in 10.0 mi East 12.7 mph - N/A   Overcast
10:56 PM 39.0 °F 30.3 °F 30.0 °F 70% 30.26 in 10.0 mi ESE 16.1 mph - N/A   Overcast